Asheville, NC

2:22 AM EDT on April 27, 2017 (GMT -0400)
Asheville Regional

Weather History for KAVL - July, 2014

Change the Weather History Date:

Saturday, July 12, 2014

  Actual Average Record
Temperature  
Mean Temperature 76 °F 74 °F  
Max Temperature 84 °F 84 °F 93 °F (1980)
Min Temperature 67 °F 64 °F 50 °F (1891)
Degree Days  
Heating Degree Days 0 0  
Month to date heating degree days 0 0  
Since 1 June heating degree days 0 14  
Since 1 July heating degree days 0 0  
Cooling Degree Days 11 9  
Month to date cooling degree days 91 104  
Year to date cooling degree days 398 339  
Since 1 June cooling degree days 317 281  
Growing Degree Days 25 (Base 50)    
Moisture  
Dew Point 66 °F    
Average Humidity 74    
Maximum Humidity 100    
Minimum Humidity 48    
Precipitation  
Precipitation 0.00 in 0.13 in 1.64 in (1959)
Month to date precipitation 1.21 1.70  
Year to date precipitation 23.11 24.60  
Snow  
Snow 0.00 in 0.00 in 0.00 in ()
Month to date snowfall 0.0 0.0  
Since 1 June snowfall 0.0 0.0  
Since 1 July snowfall 0.0 0.0  
Snow Depth 0.00 in    
Sea Level Pressure  
Sea Level Pressure 30.23 in    
Wind  
Wind Speed 3 mph (South)    
Max Wind Speed 14 mph    
Max Gust Speed 18 mph    
Visibility 5 miles    
Events Fog    
T = Trace of Precipitation, MM = Missing Value Source: NWS Daily Summary

Daily Weather History Graph

Daily Weather History Graph

Search for Another Location

Airport or City:

Trip Planner

Search our weather history database for the weather conditions in past years. The results will help you decide how hot, cold, wet, or windy it might be!

Date:

Astronomy

Jul. 12, 2014 Rise Set
Actual Time 6:24 AM EDT 8:46 PM EDT
Civil Twilight 5:55 AM EDT 9:16 PM EDT
Nautical Twilight 5:19 AM EDT 9:52 PM EDT
Astronomical Twilight 4:39 AM EDT 10:31 PM EDT
Moon 8:51 PM EDT (7/12) 6:39 AM EDT (7/12)
Length of Visible Light 15h 20m
Length of Day
14h 22m
Full, 100% of the Moon is Illuminated
Jul 12
Full
Jul 18
Last Quarter
Jul 26
New
Aug 3
First Quarter
Aug 10
Full

Hourly Weather History & Observations

Time (EDT) Temp. Heat Index Dew Point Humidity Pressure Visibility Wind Dir Wind Speed Gust Speed Precip Events Conditions
12:54 AM 71.1 °F - 66.9 °F 87% 30.20 in 10.0 mi Calm Calm - N/A   Mostly Cloudy
1:54 AM 70.0 °F - 66.9 °F 90% 30.21 in 9.0 mi SSE 3.5 mph - N/A   Overcast
2:54 AM 70.0 °F - 66.9 °F 90% 30.19 in 9.0 mi Calm Calm - N/A   Mostly Cloudy
3:06 AM 70.0 °F - 66.9 °F 90% 30.27 in 8.0 mi Calm Calm - N/A   Mostly Cloudy
3:20 AM 70.0 °F - 66.9 °F 90% 30.27 in 8.0 mi Calm Calm - N/A   Scattered Clouds
3:36 AM 69.1 °F - 66.9 °F 93% 30.27 in 8.0 mi SSE 3.5 mph - N/A   Partly Cloudy
3:51 AM 69.8 °F - 66.2 °F 88% 30.27 in 7.0 mi Calm Calm - N/A   Mostly Cloudy
3:54 AM 69.1 °F - 66.9 °F 93% 30.19 in 7.0 mi Calm Calm - N/A   Mostly Cloudy
4:05 AM 69.1 °F - 66.9 °F 93% 30.27 in 5.0 mi SW 4.6 mph - N/A   Scattered Clouds
4:07 AM 68.0 °F - 66.9 °F 96% 30.27 in 1.5 mi WSW 3.5 mph - N/A   Mostly Cloudy
4:09 AM 68.0 °F - 66.9 °F 96% 30.27 in 1.0 mi Calm Calm - N/A   Mostly Cloudy
4:13 AM 68.0 °F - 66.9 °F 96% 30.27 in 0.5 mi Calm Calm - N/A Fog Fog
4:21 AM 68.0 °F - 66.9 °F 96% 30.27 in 0.2 mi Calm Calm - N/A Fog Fog
4:32 AM 68.0 °F - 66.9 °F 96% 30.27 in 0.5 mi Calm Calm - N/A Fog Fog
4:39 AM 68.0 °F - 66.9 °F 96% 30.27 in 1.5 mi Calm Calm - N/A   Overcast
4:43 AM 68.0 °F - 66.9 °F 96% 30.27 in 3.0 mi Calm Calm - N/A   Overcast
4:54 AM 68.0 °F - 66.0 °F 93% 30.19 in 5.0 mi Calm Calm - N/A   Mostly Cloudy
5:36 AM 66.9 °F - 66.0 °F 97% 30.28 in 1.5 mi Calm Calm - N/A   Overcast
5:39 AM 66.9 °F - 66.0 °F 97% 30.28 in 0.8 mi Calm Calm - N/A   Overcast
5:54 AM 66.9 °F - 66.0 °F 97% 30.20 in 0.8 mi SE 3.5 mph - N/A   Overcast
6:01 AM 66.9 °F - 66.0 °F 97% 30.28 in 1.0 mi SSW 3.5 mph - N/A   Mist
6:03 AM 66.9 °F - 66.0 °F 97% 30.28 in 0.8 mi Calm Calm - N/A   Mist
6:18 AM 66.9 °F - 66.0 °F 97% 30.29 in 0.2 mi Calm Calm - N/A Fog Fog
6:27 AM 66.9 °F - 66.0 °F 97% 30.29 in 0.5 mi Calm Calm - N/A Fog Fog
6:39 AM 66.9 °F - 66.0 °F 97% 30.29 in 0.2 mi Calm Calm - N/A Fog Fog
6:54 AM 66.9 °F - 66.0 °F 97% 30.22 in 0.2 mi Calm Calm - N/A Fog Fog
7:09 AM 66.9 °F - 66.0 °F 97% 30.30 in 0.8 mi Calm Calm - N/A   Mist
7:54 AM 68.0 °F - 66.9 °F 96% 30.21 in 0.5 mi Calm Calm - N/A Fog Fog
8:12 AM 66.9 °F - 66.0 °F 97% 30.29 in 1.5 mi Calm Calm - N/A   Overcast
8:15 AM 68.0 °F - 66.9 °F 96% 30.29 in 3.0 mi Calm Calm - N/A   Overcast
8:28 AM 68.0 °F - 66.0 °F 93% 30.29 in 0.5 mi Calm Calm - N/A Fog Fog
8:54 AM 68.0 °F - 66.9 °F 96% 30.22 in 0.5 mi Calm Calm - N/A Fog Fog
9:15 AM 68.0 °F - 66.9 °F 96% 30.30 in 0.5 mi Variable 3.5 mph - N/A Fog Fog
9:54 AM 71.1 °F - 66.9 °F 87% 30.23 in 0.5 mi Variable 3.5 mph - N/A Fog Fog
10:01 AM 71.1 °F - 66.9 °F 87% 30.30 in 2.0 mi Calm Calm - N/A   Overcast
10:09 AM 71.1 °F - 68.0 °F 90% 30.31 in 7.0 mi Variable 3.5 mph - N/A   Scattered Clouds
10:54 AM 75.9 °F - 66.9 °F 74% 30.23 in 10.0 mi SSE 3.5 mph - N/A   Clear
11:54 AM 79.0 °F - 64.0 °F 60% 30.22 in 10.0 mi Variable 5.8 mph - N/A   Clear
12:54 PM 81.0 °F 82.7 °F 64.9 °F 58% 30.21 in 10.0 mi South 4.6 mph - N/A   Partly Cloudy
1:54 PM 82.0 °F 84.1 °F 66.0 °F 58% 30.20 in 10.0 mi SSE 9.2 mph - N/A   Scattered Clouds
2:54 PM 82.9 °F 84.4 °F 64.0 °F 53% 30.18 in 10.0 mi SSE 8.1 mph - N/A   Mostly Cloudy
3:54 PM 84.0 °F 84.5 °F 62.1 °F 47% 30.17 in 10.0 mi SSE 9.2 mph - N/A   Partly Cloudy
4:54 PM 82.0 °F 83.4 °F 64.0 °F 54% 30.17 in 10.0 mi South 9.2 mph - N/A   Mostly Cloudy
5:54 PM 81.0 °F 82.5 °F 64.0 °F 56% 30.16 in 10.0 mi South 5.8 mph - N/A   Partly Cloudy
6:54 PM 82.0 °F 84.1 °F 66.0 °F 58% 30.14 in 10.0 mi SW 5.8 mph - N/A   Scattered Clouds
7:54 PM 79.0 °F - 66.0 °F 64% 30.15 in 10.0 mi South 3.5 mph - N/A   Clear
8:54 PM 77.0 °F - 66.9 °F 71% 30.16 in 10.0 mi Calm Calm - N/A   Mostly Cloudy
9:54 PM 75.0 °F - 66.0 °F 73% 30.17 in 10.0 mi Calm Calm - N/A   Clear
10:54 PM 73.0 °F - 66.9 °F 81% 30.16 in 10.0 mi Calm Calm - N/A   Clear
11:54 PM 72.0 °F - 66.9 °F 84% 30.15 in 9.0 mi Calm Calm - N/A   Clear